Location: Cherry Grove
(44.1968°N, 92.8624°W)
Time: 09:59:40
(UTC-05:00)

Tiangong 2 - Visible Passes

Search period start: 18 October 2017 00:00
Search period end: 28 October 2017 00:00
Orbit: 388 x 392 km, 42.8° (Epoch: 18 October)

Date Brightness Start Highest point End Pass type
(mag) Time Alt. Az. Time Alt. Az. Time Alt. Az.
18 Oct 4.3 04:55:26 13° ESE 04:55:26 13° ESE 04:55:52 10° ESE visible
18 Oct 2.5 06:27:47 18° WSW 06:29:18 26° SSW 06:32:03 10° SE visible
19 Oct 2.9 05:32:51 25° SSE 05:32:51 25° SSE 05:34:34 10° SE visible
20 Oct 3.1 06:10:20 17° SSW 06:10:20 17° SSW 06:12:22 10° SSE visible
